Date,TemperatureHighF,TemperatureAvgF,TemperatureLowF,DewpointHighF,DewpointAvgF,DewpointLowF,HumidityHigh,HumidityAvg,HumidityLow,PressureMaxIn,PressureMinIn,WindSpeedMaxMPH,WindSpeedAvgMPH,GustSpeedMaxMPH,PrecipitationSumIn
2013-1-1,78.0,62.2,49.2,64.0,56.6,48.0,98,84,56,30.25,30.08,7,1,10,0.00
2013-1-2,80.1,65.9,54.6,69.0,60.9,54.0,98,85,60,30.12,30.01,6,1,10,0.00
2013-1-3,78.0,65.3,56.2,69.0,61.9,55.0,98,89,68,30.19,30.07,6,1,11,0.00
2013-1-4,68.7,64.3,60.8,65.0,62.1,59.0,95,92,88,30.29,30.16,9,4,13,0.01
2013-1-5,76.9,67.0,58.5,69.0,62.8,56.0,97,87,66,30.31,30.21,6,3,14,0.41
2013-1-6,79.2,69.1,60.2,73.0,66.7,59.0,98,92,78,30.23,30.09,4,1,10,0.17
2013-1-7,71.7,67.6,61.7,66.0,64.0,60.0,97,88,77,30.23,30.14,9,3,17,0.00
2013-1-8,79.1,71.0,65.1,72.0,67.6,64.0,98,89,73,30.25,30.15,5,1,9,0.03
2013-1-9,80.4,72.4,66.6,73.0,69.5,66.0,98,90,75,30.34,30.23,5,1,11,0.02
2013-1-10,81.3,70.9,61.5,70.0,66.4,60.0,98,86,64,30.35,30.25,7,1,14,0.01
2013-1-11,80.6,68.4,60.2,71.0,64.3,59.0,98,88,62,30.31,30.20,7,1,12,0.00
2013-1-12,80.8,67.5,58.4,71.0,63.3,58.0,98,87,64,30.23,30.14,6,1,10,0.00
2013-1-13,81.7,67.8,56.8,68.0,62.8,56.0,98,85,60,30.20,30.11,5,1,11,0.00
2013-1-14,79.1,66.7,56.2,70.0,62.7,55.0,98,88,69,30.23,30.16,7,1,9,0.00
2013-1-15,82.0,67.7,58.4,70.0,63.4,58.0,98,87,63,30.19,30.10,11,1,13,0.00
2013-1-16,82.4,68.6,55.8,68.0,62.6,55.0,98,83,53,30.15,30.04,8,1,11,0.00
2013-1-17,83.3,67.7,53.9,71.0,61.8,48.0,98,82,54,30.12,29.95,13,2,18,0.00
2013-1-18,70.4,58.0,43.3,61.0,51.0,37.0,91,78,59,30.29,30.12,11,4,18,0.16
2013-1-19,73.4,66.7,62.1,66.0,62.8,59.0,96,87,77,30.29,30.17,7,2,14,0.21
2013-1-20,73.8,65.5,59.9,68.0,62.8,59.0,97,90,78,30.20,30.08,10,3,15,0.01
2013-1-21,77.7,65.5,60.1,70.0,63.0,58.0,97,91,72,30.12,30.02,5,1,9,0.05
2013-1-22,69.9,59.6,50.0,59.0,51.7,46.0,95,76,54,30.30,30.07,17,5,21,0.00
2013-1-23,71.4,56.2,46.1,54.0,46.9,40.0,94,73,49,30.38,30.29,8,3,14,0.00
2013-1-24,73.1,54.7,40.5,53.0,46.7,40.0,97,78,43,30.36,30.25,8,1,11,0.00
2013-1-25,76.7,59.1,45.9,60.0,51.8,45.0,98,80,45,30.35,30.21,4,1,10,0.00
2013-1-26,76.7,59.0,44.4,58.0,51.4,43.0,98,80,39,30.32,30.20,9,1,11,0.00
2013-1-27,78.3,61.9,48.0,65.0,55.8,47.0,98,83,52,30.35,30.26,6,1,10,0.01
2013-1-28,76.4,70.0,65.2,68.0,65.4,63.0,94,85,71,30.37,30.28,8,1,13,0.00
2013-1-29,80.6,69.3,58.8,71.0,65.1,58.0,98,87,68,30.29,30.16,5,1,11,0.00
2013-1-30,83.0,71.3,61.3,68.0,63.8,60.0,97,79,54,30.16,29.95,14,3,19,0.00
2013-1-31,68.9,60.0,46.9,67.0,50.2,36.0,96,73,39,30.25,29.95,11,3,17,0.10
2013-2-1,69.3,53.0,40.6,47.0,38.2,27.0,93,61,21,30.37,30.24,10,3,15,0.00
2013-2-2,73.7,55.1,38.3,53.0,46.6,37.0,96,76,44,30.33,30.17,7,1,11,0.00
2013-2-3,72.4,56.4,43.3,51.0,46.4,40.0,97,73,41,30.23,30.09,8,2,15,0.00
2013-2-4,73.4,54.3,38.8,52.0,44.8,38.0,97,74,39,30.18,30.06,6,1,11,0.00
2013-2-5,77.4,57.5,40.7,55.0,48.2,40.0,97,75,38,30.15,30.04,5,1,9,0.00
2013-2-6,80.2,65.1,51.2,66.0,58.9,50.0,98,81,53,30.15,30.07,5,1,9,0.00
2013-2-7,82.4,69.2,56.8,68.0,62.0,55.0,97,80,53,30.12,29.93,6,1,12,0.00
2013-2-8,82.5,68.1,57.1,64.0,60.4,56.0,97,79,40,30.11,29.90,9,2,11,0.00
2013-2-9,76.4,64.3,53.4,61.0,57.6,52.0,97,81,55,30.23,30.09,9,2,14,0.01
2013-2-10,77.6,66.9,58.9,61.0,57.9,55.0,89,74,55,30.31,30.21,7,1,16,0.00
2013-2-11,83.8,69.8,57.4,65.0,61.1,56.0,97,76,47,30.26,30.11,9,2,11,0.00
2013-2-12,85.5,72.1,57.7,69.0,64.2,56.0,98,78,50,30.15,29.97,8,2,15,0.00
2013-2-13,87.4,74.3,64.5,72.0,66.4,59.0,97,78,48,30.01,29.86,12,4,22,0.00
2013-2-14,74.3,63.4,59.5,67.0,60.8,58.0,97,91,74,30.08,29.96,8,1,14,0.83
2013-2-15,68.9,60.9,56.4,62.0,58.7,56.0,97,92,76,30.10,29.98,6,1,9,0.07
2013-2-16,70.8,59.2,45.3,58.0,48.4,35.0,97,71,40,30.12,29.92,12,2,19,0.00
2013-2-17,56.4,44.8,34.1,39.0,25.9,17.0,87,52,22,30.38,30.12,16,4,21,0.00
2013-2-18,68.2,50.9,33.7,51.0,40.8,29.0,91,71,46,30.39,30.27,9,2,13,0.00
2013-2-19,79.5,62.1,46.0,61.0,53.1,44.0,97,76,44,30.26,30.09,7,1,13,0.00
2013-2-20,77.3,63.2,51.4,65.0,57.8,50.0,98,84,63,30.17,30.06,8,1,11,0.00
2013-2-21,82.2,69.2,56.7,68.0,62.6,56.0,98,81,55,30.14,30.05,5,1,9,0.00
2013-2-22,83.6,70.8,58.2,73.0,66.6,57.0,98,87,63,30.14,30.04,7,1,12,0.00
2013-2-23,87.3,74.2,63.0,72.0,66.7,62.0,98,80,47,30.07,29.90,10,2,16,0.00
2013-2-24,84.2,72.2,66.0,73.0,67.5,65.0,97,86,59,30.01,29.93,6,2,13,0.00
2013-2-25,86.7,74.4,65.0,74.0,67.5,64.0,98,81,51,29.96,29.82,12,2,13,0.00
2013-2-26,84.1,74.8,65.5,73.0,69.2,64.0,95,83,61,29.90,29.78,13,4,22,0.00
2013-2-27,78.1,66.2,56.1,63.0,59.1,53.0,98,80,53,30.00,29.89,5,1,10,0.01
2013-2-28,75.2,61.7,48.4,53.0,49.2,42.0,96,67,33,30.04,29.90,8,2,12,0.00
2013-3-1,67.5,56.7,50.2,49.0,44.7,39.0,89,66,41,30.02,29.93,10,2,12,0.00
2013-3-2,62.4,52.1,39.3,43.0,37.1,32.0,86,59,37,30.07,29.97,10,3,14,0.00
2013-3-3,58.8,46.4,35.9,37.0,33.6,30.0,89,64,40,30.20,30.00,13,3,19,0.00
2013-3-4,66.6,47.4,29.6,41.0,32.9,27.0,96,65,24,30.28,30.16,9,2,16,0.00
2013-3-5,79.1,58.6,37.8,53.0,45.1,36.0,97,67,29,30.23,30.06,10,1,12,0.00
2013-3-6,72.1,60.7,43.4,61.0,43.3,24.0,95,59,17,30.16,29.98,10,2,21,0.03
2013-3-7,70.3,53.2,40.5,48.0,41.4,33.0,93,66,42,30.24,30.13,10,3,14,0.00
2013-3-8,75.2,55.7,39.4,52.0,45.4,38.0,97,73,30,30.27,30.16,8,2,12,0.00
2013-3-9,74.6,59.5,45.0,57.0,49.8,43.0,96,73,46,30.26,30.16,11,2,14,0.00
2013-3-10,76.7,62.7,49.4,59.0,53.4,48.0,97,75,43,30.22,30.13,10,2,14,0.00
2013-3-11,79.1,65.6,51.8,62.0,57.0,51.0,97,76,50,30.16,29.98,6,1,14,0.00
2013-3-12,74.6,67.5,59.5,70.0,63.7,57.0,96,87,80,30.04,29.92,6,2,13,0.19
2013-3-13,76.1,60.5,47.6,56.0,48.7,43.0,96,70,32,30.19,30.04,10,2,17,0.00
2013-3-14,68.7,54.2,43.0,46.0,41.6,35.0,96,66,36,30.27,30.16,14,4,18,0.00
2013-3-15,71.6,54.1,37.5,45.0,41.4,36.0,96,68,31,30.32,30.19,10,1,15,0.00
2013-3-16,79.7,60.1,39.9,55.0,46.8,39.0,97,68,30,30.24,30.09,7,1,11,0.00
2013-3-17,82.3,64.3,46.0,60.0,53.6,44.0,97,71,42,30.20,30.05,9,1,16,0.00
2013-3-18,81.3,70.8,61.7,67.0,62.8,58.0,94,77,58,30.11,29.94,12,2,16,0.02
2013-3-19,87.0,70.9,60.6,67.0,63.5,60.0,97,80,47,30.04,29.92,9,1,10,0.00
2013-3-20,79.4,70.0,62.5,69.0,63.6,57.0,98,81,59,30.00,29.82,12,1,13,0.00
2013-3-21,74.2,61.7,47.5,57.0,44.2,26.0,94,60,20,29.99,29.87,12,3,15,0.00
2013-3-22,80.1,59.1,40.9,63.0,51.0,39.0,97,79,38,30.06,29.95,6,1,11,0.71
2013-3-23,88.8,74.6,63.8,74.0,68.0,63.0,98,82,49,30.02,29.78,13,2,15,0.02
2013-3-24,88.6,72.6,66.7,73.0,68.0,63.0,96,86,55,29.90,29.67,13,3,23,0.21
2013-3-25,76.3,67.3,53.6,69.0,51.2,30.0,97,64,19,30.05,29.76,12,2,16,0.01
2013-3-26,65.1,54.2,41.7,43.0,32.9,25.0,76,47,25,30.25,30.05,12,4,20,0.00
2013-3-27,67.7,51.4,39.3,43.0,36.6,32.0,90,61,28,30.33,30.22,9,3,13,0.00
2013-3-28,73.0,54.0,38.1,48.0,41.1,33.0,96,67,26,30.33,30.22,9,2,12,0.00
2013-3-29,75.0,58.2,43.9,51.0,45.2,42.0,95,68,33,30.36,30.25,9,2,13,0.00
2013-3-30,79.9,61.2,44.7,57.0,50.3,43.0,97,71,39,30.30,30.17,7,1,18,0.00
2013-3-31,84.4,68.1,50.8,64.0,56.7,49.0,96,70,39,30.22,30.04,11,2,15,0.00
2013-4-1,86.6,72.7,61.1,70.0,62.9,60.0,97,74,43,30.08,29.95,9,2,18,0.00
2013-4-2,84.2,70.7,59.0,65.0,60.6,56.0,97,74,40,30.11,30.02,10,2,16,0.00
2013-4-3,86.1,71.9,59.0,69.0,64.2,58.0,98,79,46,30.11,30.01,8,1,13,0.00
2013-4-4,73.8,69.3,64.3,71.0,67.5,63.0,97,94,88,30.08,29.92,12,2,13,0.39
2013-4-5,75.4,67.2,61.4,71.0,64.7,58.0,97,91,82,29.99,29.82,9,2,17,0.80
2013-4-6,77.3,66.2,54.2,64.0,58.7,53.0,94,78,59,30.15,29.99,12,4,21,0.00
2013-4-7,79.2,69.4,57.2,63.0,60.0,56.0,96,74,54,30.19,30.09,8,2,14,0.01
2013-4-8,81.3,69.6,54.9,69.0,60.7,54.0,98,76,50,30.18,30.10,6,1,13,0.00
2013-4-9,81.7,70.1,61.1,69.0,62.7,59.0,97,79,57,30.21,30.11,14,2,18,0.00
2013-4-10,84.3,71.4,58.1,71.0,65.6,57.0,98,83,61,30.16,30.04,9,2,15,0.00
2013-4-11,84.8,76.9,69.9,73.0,70.7,68.0,95,82,65,30.05,29.89,8,2,15,0.00
2013-4-12,90.1,79.5,72.5,76.0,71.3,68.0,94,77,54,29.95,29.85,15,3,20,0.00
2013-4-13,89.9,74.9,70.0,74.0,68.9,66.0,95,82,59,30.01,29.91,5,1,10,0.00
2013-4-14,87.2,76.2,67.5,76.0,71.4,66.0,96,85,67,30.02,29.86,9,2,16,1.01
2013-4-15,86.0,74.4,64.7,75.0,68.2,64.0,98,82,60,30.10,29.95,7,1,10,0.00
2013-4-16,84.8,75.5,67.4,74.0,69.2,66.0,98,82,62,30.17,30.07,9,2,16,0.00
2013-4-17,82.3,72.9,61.9,71.0,65.9,61.0,98,80,59,30.17,30.08,7,1,12,0.00
2013-4-18,85.9,75.3,62.9,73.0,68.4,62.0,97,80,64,30.10,30.00,9,1,13,0.00
2013-4-19,92.6,78.1,68.5,75.0,70.6,66.0,97,80,49,30.07,29.95,12,2,15,1.07
2013-4-20,76.7,70.3,65.0,74.0,67.3,62.0,98,90,76,30.15,30.00,11,3,15,0.01
2013-4-21,81.9,71.4,63.1,72.0,66.7,61.0,96,85,67,30.15,30.03,8,2,17,0.00
2013-4-22,78.8,71.4,66.2,71.0,67.9,65.0,97,89,74,30.10,30.00,11,2,22,0.07
2013-4-23,81.7,72.0,63.7,69.0,64.7,61.0,97,79,56,30.14,30.02,14,3,16,0.00
2013-4-24,82.0,70.3,58.1,69.0,62.1,57.0,98,77,55,30.18,30.09,6,1,12,0.00
2013-4-25,85.9,72.0,58.8,69.0,62.9,58.0,97,76,48,30.23,30.12,8,1,11,0.00
2013-4-26,85.7,73.0,60.7,69.0,64.8,59.0,97,78,53,30.27,30.18,7,1,14,0.00
2013-4-27,82.9,72.5,63.7,70.0,65.6,63.0,97,80,57,30.25,30.14,9,1,14,0.00
2013-4-28,84.5,72.6,62.1,68.0,63.5,61.0,96,75,52,30.17,30.05,8,2,14,0.00
2013-4-29,85.4,73.6,62.3,71.0,66.3,61.0,97,79,54,30.07,29.94,8,1,12,0.00
2013-4-30,85.9,73.7,67.7,74.0,69.3,66.0,96,86,61,30.03,29.96,7,1,12,0.09
2013-5-1,82.3,70.2,64.7,74.0,67.8,64.0,98,92,69,30.04,29.97,5,0,13,0.66
2013-5-2,77.6,71.2,65.9,72.0,68.5,65.0,97,91,81,30.00,29.85,6,2,15,1.20
2013-5-3,84.6,74.3,66.6,74.0,68.6,65.0,97,83,61,29.87,29.68,10,2,14,0.01
2013-5-4,84.4,74.2,65.9,72.0,67.7,65.0,96,81,59,29.82,29.70,9,1,11,0.00
2013-5-5,80.0,70.6,58.5,67.0,56.5,45.0,96,66,29,29.96,29.77,9,2,19,0.00
2013-5-6,82.0,68.3,54.9,65.0,56.5,50.0,96,69,36,30.03,29.93,10,2,15,0.00
2013-5-7,81.2,67.3,51.8,62.0,56.3,51.0,97,71,44,30.08,29.99,8,1,12,0.00
2013-5-8,83.2,70.1,56.0,66.0,59.9,55.0,97,73,45,30.16,30.05,7,1,11,0.00
2013-5-9,84.8,71.9,57.4,68.0,63.5,56.0,97,77,53,30.18,30.10,9,1,10,0.00
2013-5-10,88.7,75.7,64.1,77.0,69.1,63.0,97,81,58,30.16,30.04,9,1,15,0.06
2013-5-11,91.6,76.0,67.0,76.0,70.2,66.0,97,84,50,30.09,29.97,10,1,20,0.43
2013-5-12,89.9,77.0,67.7,77.0,71.0,67.0,98,83,57,30.06,29.96,5,1,12,0.01
2013-5-13,83.7,72.5,65.2,71.0,64.5,57.0,96,77,57,30.15,30.01,11,2,13,0.00
2013-5-14,81.4,69.4,55.9,62.0,57.6,54.0,95,69,44,30.23,30.14,8,2,13,0.00
2013-5-15,83.2,70.1,55.8,66.0,59.7,54.0,97,72,47,30.24,30.14,7,1,12,0.00
2013-5-16,86.6,71.8,58.1,67.0,61.8,57.0,97,73,42,30.16,30.07,8,1,12,0.00
2013-5-17,86.3,74.2,61.1,71.0,65.8,60.0,97,77,56,30.13,30.05,10,1,14,0.00
2013-5-18,87.6,76.7,64.1,74.0,69.6,63.0,97,80,59,30.14,30.06,8,1,11,0.00
2013-5-19,85.1,75.8,69.3,73.0,70.1,68.0,95,83,64,30.13,30.04,7,1,11,0.00
2013-5-20,85.8,75.1,67.2,74.0,69.5,66.0,97,84,58,30.11,30.03,12,1,12,0.07
2013-5-21,83.8,73.4,68.8,74.0,70.6,67.0,97,91,67,30.07,29.98,9,1,11,1.38
2013-5-22,81.7,73.7,65.7,76.0,70.6,65.0,98,90,71,30.02,29.93,7,1,10,0.79
2013-5-23,89.4,77.2,66.8,76.0,71.3,66.0,98,83,60,30.02,29.94,4,1,17,0.01
2013-5-24,92.2,79.3,66.8,77.0,70.0,66.0,97,76,44,30.11,29.98,8,1,11,0.00
2013-5-25,86.5,77.0,67.6,71.0,66.1,60.0,94,71,41,30.22,30.09,10,2,15,0.00
2013-5-26,84.7,72.4,58.6,66.0,62.3,57.0,95,72,49,30.24,30.17,11,1,13,0.00
2013-5-27,83.6,74.5,61.1,70.0,65.7,59.0,95,75,58,30.21,30.14,10,2,15,0.00
2013-5-28,85.1,78.0,72.8,75.0,71.1,68.0,87,79,69,30.17,30.11,11,3,15,0.00
2013-5-29,79.6,75.6,70.4,75.0,72.3,68.0,97,89,81,30.18,30.08,11,2,13,0.38
2013-5-30,84.2,77.5,71.6,75.0,71.7,68.0,97,83,66,30.15,30.07,15,2,23,0.22
2013-5-31,83.9,78.6,74.3,75.0,71.6,68.0,88,79,71,30.13,30.07,12,3,21,0.08
2013-6-1,85.9,79.0,74.3,76.0,73.8,71.0,94,84,70,30.09,30.00,7,2,13,0.06
2013-6-2,93.0,79.3,71.7,79.0,74.2,70.0,98,85,57,30.03,29.92,6,1,12,0.34
2013-6-3,89.4,78.6,71.3,78.0,74.0,70.0,98,87,64,30.04,29.92,5,1,10,0.00
2013-6-4,84.4,77.8,72.8,76.0,72.8,71.0,96,85,69,30.07,29.97,6,1,10,0.03
2013-6-5,87.6,77.9,72.7,77.0,74.1,71.0,97,88,69,30.05,29.95,5,1,11,0.03
2013-6-6,81.1,75.2,72.2,78.0,73.6,70.0,97,94,90,29.95,29.76,9,3,19,1.95
2013-6-7,89.5,79.7,72.4,79.0,74.4,71.0,97,84,67,29.99,29.82,7,2,10,0.01
2013-6-8,90.4,77.5,71.1,78.0,73.5,70.0,97,88,61,30.12,29.99,5,1,14,0.15
2013-6-9,88.0,79.1,70.2,78.0,73.6,69.0,98,84,58,30.14,30.07,8,1,15,0.00
2013-6-10,89.3,80.1,73.2,78.0,75.3,72.0,97,85,66,30.12,30.05,8,1,12,0.01
2013-6-11,90.7,77.8,71.3,79.0,74.3,69.0,97,89,66,30.13,30.04,7,1,17,1.34
2013-6-12,93.7,79.6,69.1,81.0,73.4,68.0,98,83,55,30.11,30.04,8,1,12,0.01
2013-6-13,94.4,80.9,70.7,79.0,73.4,69.0,96,79,54,30.07,29.94,5,1,11,0.00
2013-6-14,92.7,82.6,72.7,78.0,73.9,70.0,97,77,49,29.97,29.87,8,1,11,0.00
2013-6-15,90.8,80.9,71.9,80.0,74.8,71.0,97,82,63,30.09,29.94,8,2,14,0.00
2013-6-16,89.9,82.6,75.7,78.0,75.6,74.0,94,80,65,30.12,30.05,8,1,14,0.00
2013-6-17,96.0,84.3,74.7,80.0,75.9,71.0,96,77,46,30.12,30.01,8,2,11,0.00
2013-6-18,94.4,83.8,73.7,78.0,75.0,72.0,97,77,50,30.09,29.98,7,2,10,0.03
2013-6-19,95.5,79.9,70.7,80.0,72.3,68.0,96,79,46,30.08,29.99,7,1,12,0.11
2013-6-20,90.7,78.2,71.8,79.0,73.6,69.0,98,86,66,30.13,30.05,5,1,10,0.09
2013-6-21,87.4,74.8,68.9,79.0,72.1,68.0,97,91,72,30.16,30.07,3,0,10,0.48
2013-6-22,89.4,80.0,69.7,79.0,73.1,69.0,98,81,60,30.15,30.08,6,1,11,0.01
2013-6-23,90.1,76.9,72.0,78.0,73.8,71.0,97,90,60,30.18,30.09,5,0,11,0.80
2013-6-24,89.1,79.9,70.8,78.0,74.3,70.0,98,84,65,30.21,30.12,4,1,14,0.00
2013-6-25,89.9,79.9,70.6,78.0,74.1,70.0,98,83,63,30.18,30.08,8,1,14,0.00
2013-6-26,90.9,77.2,73.0,79.0,74.6,72.0,98,92,64,30.11,30.04,5,0,8,1.05
2013-6-27,92.0,79.7,70.5,80.0,74.7,70.0,99,86,61,30.08,29.96,5,1,8,0.01
2013-6-28,93.7,78.6,70.6,79.0,73.6,68.0,98,86,58,30.01,29.87,7,1,17,0.95
2013-6-29,92.0,78.1,71.8,80.0,74.2,71.0,98,89,60,29.92,29.85,12,2,15,0.32
2013-6-30,89.2,76.3,72.7,81.0,74.4,71.0,98,94,73,29.95,29.87,7,1,11,0.64
2013-7-1,87.4,75.6,72.4,80.0,73.8,71.0,98,94,68,30.07,29.92,9,1,22,0.88
2013-7-2,87.4,75.9,72.2,81.0,74.6,72.0,99,96,77,30.15,30.01,5,0,8,0.33
2013-7-3,88.4,79.7,71.8,80.0,75.6,72.0,99,87,72,30.17,30.09,7,1,13,0.01
2013-7-4,88.9,80.2,71.8,80.0,75.1,71.0,99,85,69,30.19,30.11,8,1,15,0.06
2013-7-5,89.4,81.0,74.4,79.0,75.1,72.0,98,83,65,30.19,30.10,9,2,17,0.00
2013-7-6,88.5,79.9,72.9,79.0,74.5,72.0,97,84,62,30.16,30.09,8,1,13,0.09
2013-7-7,88.7,80.6,72.5,78.0,74.9,72.0,98,84,66,30.16,30.08,9,1,13,0.00
2013-7-8,89.2,80.1,72.6,78.0,74.3,72.0,98,84,63,30.19,30.12,9,1,12,0.00
2013-7-9,87.2,78.8,71.3,78.0,73.1,70.0,98,84,68,30.20,30.10,6,1,13,0.00
2013-7-10,88.5,79.1,71.1,77.0,73.1,70.0,98,83,65,30.11,30.02,7,1,12,0.00
2013-7-11,92.3,78.6,72.0,78.0,73.8,71.0,97,86,59,30.08,29.95,7,1,22,1.46
2013-7-12,91.9,78.6,70.6,79.0,73.6,70.0,99,86,59,30.00,29.91,6,1,10,0.01
2013-7-13,89.4,75.4,70.6,80.0,72.9,70.0,98,92,65,30.04,29.95,6,0,7,0.24
2013-7-14,87.3,75.1,69.7,79.0,72.5,69.0,98,92,73,30.13,30.02,6,1,12,0.53
2013-7-15,87.0,77.3,69.1,78.0,73.2,68.0,99,87,71,30.15,30.05,9,1,12,0.00
2013-7-16,86.8,77.1,72.4,77.0,73.5,71.0,98,89,71,30.18,30.12,9,1,16,0.08
2013-7-17,84.8,77.5,72.4,78.0,74.1,71.0,98,89,74,30.18,30.11,7,1,13,0.27
2013-7-18,86.9,77.8,72.2,78.0,73.9,71.0,98,88,68,30.16,30.08,6,1,10,0.05
2013-7-19,90.8,78.3,72.3,80.0,74.3,71.0,97,88,67,30.16,30.06,9,1,14,0.05
2013-7-20,88.5,76.5,72.6,81.0,74.6,71.0,98,94,78,30.14,30.05,6,0,13,0.80
2013-7-21,89.3,77.3,71.8,81.0,74.6,71.0,98,92,74,30.17,30.07,12,1,16,0.67
2013-7-22,91.8,79.8,72.1,82.0,75.2,71.0,98,87,62,30.16,30.08,14,1,23,0.07
2013-7-23,92.5,79.9,71.9,80.0,75.0,71.0,98,86,62,30.13,29.99,8,1,11,0.01
2013-7-24,90.9,78.5,73.7,79.0,75.0,72.0,97,89,66,30.04,29.93,5,1,17,0.06
2013-7-25,83.0,77.4,72.4,79.0,75.2,71.0,98,92,85,30.02,29.91,7,1,18,1.17
2013-7-26,90.2,80.2,73.5,80.0,75.8,73.0,98,87,69,30.03,29.97,6,1,11,0.23
2013-7-27,93.7,81.0,71.7,80.0,75.6,71.0,98,85,53,30.02,29.94,5,0,8,0.07
2013-7-28,92.5,81.8,74.9,80.0,75.2,72.0,97,82,60,30.09,29.96,6,1,14,0.02
2013-7-29,91.3,79.9,72.1,81.0,75.4,71.0,98,87,64,30.18,30.06,6,1,12,0.03
2013-7-30,90.1,81.1,72.6,82.0,76.0,72.0,98,85,69,30.20,30.12,9,1,11,0.00
2013-7-31,92.0,82.1,73.8,82.0,76.0,73.0,98,83,59,30.16,30.04,7,1,11,0.07
2013-8-1,91.8,81.2,73.3,80.0,75.3,72.0,97,83,62,30.10,29.98,7,1,11,0.00
2013-8-2,91.7,80.4,71.7,79.0,74.6,71.0,98,83,63,30.06,29.97,7,1,14,0.00
2013-8-3,89.2,77.3,71.7,80.0,74.2,71.0,97,90,71,30.15,30.03,8,1,16,0.61
2013-8-4,93.0,80.6,72.0,82.0,76.3,71.0,98,87,62,30.12,30.02,6,1,11,0.01
2013-8-5,95.2,80.0,73.7,82.0,75.9,72.0,98,89,59,30.06,29.95,4,1,10,1.32
2013-8-6,90.0,80.6,71.3,81.0,75.9,70.0,98,86,67,30.00,29.93,5,1,9,0.01
2013-8-7,91.4,82.0,74.7,81.0,76.6,73.0,97,84,64,30.01,29.94,6,1,12,0.00
2013-8-8,91.2,83.2,74.3,80.0,76.3,73.0,97,81,62,30.07,29.98,8,1,14,0.00
2013-8-9,92.3,81.9,74.3,79.0,74.8,70.0,97,80,59,30.10,30.00,10,1,15,0.00
2013-8-10,94.4,82.3,72.3,79.0,74.8,71.0,97,80,52,30.16,30.09,5,1,15,0.00
2013-8-11,93.4,82.5,72.7,80.0,75.1,72.0,98,80,58,30.18,30.11,7,1,14,0.00
2013-8-12,92.8,81.3,70.6,79.0,73.3,69.0,98,79,48,30.16,30.05,7,1,9,0.00
2013-8-13,93.0,81.7,71.0,80.0,74.9,70.0,98,81,56,30.09,29.97,7,1,11,0.24
2013-8-14,93.0,82.8,74.2,79.0,75.1,72.0,96,78,59,30.05,29.93,5,1,10,0.00
2013-8-15,89.8,80.9,74.2,78.0,75.4,73.0,96,84,63,30.07,29.97,6,1,9,0.04
2013-8-16,96.1,83.4,75.8,78.0,75.9,73.0,97,79,49,30.08,30.00,8,1,9,0.00
2013-8-17,94.0,82.7,75.8,81.0,76.7,75.0,97,83,61,30.11,30.03,7,1,13,0.00
2013-8-18,91.4,82.1,74.0,80.0,76.2,73.0,98,83,62,30.13,30.04,8,1,16,0.13
2013-8-19,94.1,83.1,74.8,80.0,76.0,73.0,97,81,56,30.12,29.99,10,1,14,0.01
2013-8-20,92.8,82.8,74.1,80.0,76.0,73.0,97,81,59,30.12,30.03,7,1,14,0.00
2013-8-21,91.3,81.7,74.2,79.0,76.4,73.0,97,85,66,30.13,30.06,13,2,13,0.99
2013-8-22,89.9,80.7,75.1,82.0,77.0,74.0,98,88,70,30.11,30.02,9,1,12,0.02
2013-8-23,91.5,81.1,73.7,81.0,76.1,73.0,98,86,65,30.05,29.98,8,1,13,0.00
2013-8-24,94.4,81.3,74.2,81.0,75.5,73.0,97,83,55,30.13,30.02,8,1,15,0.06
2013-8-25,85.4,78.6,73.6,80.0,75.5,72.0,97,90,80,30.19,30.09,5,1,8,0.04
2013-8-26,91.0,79.5,72.6,80.0,74.5,72.0,98,86,61,30.16,30.05,9,1,12,0.18
2013-8-27,87.9,78.2,71.5,77.0,72.4,69.0,98,84,62,30.08,30.02,8,1,14,0.02
2013-8-28,91.1,78.8,69.9,77.0,72.2,69.0,98,82,60,30.08,30.01,8,1,11,0.00
2013-8-29,92.4,79.5,71.5,78.0,73.7,70.0,96,83,54,30.06,29.97,7,1,8,0.02
2013-8-30,94.6,79.1,71.5,80.0,74.2,70.0,98,86,56,30.02,29.94,3,1,10,0.42
2013-8-31,93.7,80.0,70.5,79.0,73.3,68.0,97,82,53,30.01,29.91,6,1,19,0.62
2013-9-1,92.4,77.6,71.0,80.0,73.2,70.0,98,87,58,30.03,29.95,6,0,9,0.07
2013-9-2,92.6,77.8,70.6,81.0,73.5,70.0,98,88,59,30.05,29.96,4,0,12,0.09
2013-9-3,93.8,79.0,71.3,80.0,74.5,70.0,98,87,58,30.05,29.97,5,1,13,0.35
2013-9-4,91.5,79.9,72.4,81.0,76.0,72.0,98,88,65,30.11,30.00,4,0,8,0.01
2013-9-5,92.9,82.2,74.2,81.0,76.7,73.0,97,84,62,30.12,30.04,6,1,11,0.01
2013-9-6,91.5,80.7,73.1,81.0,76.2,72.0,98,87,65,30.07,29.98,5,1,10,0.11
2013-9-7,90.6,79.1,73.8,79.0,75.1,72.0,97,88,64,30.04,29.95,6,1,8,0.03
2013-9-8,90.7,80.2,71.8,80.0,73.9,71.0,98,82,60,30.00,29.90,8,1,13,0.01
2013-9-9,90.0,80.2,71.3,78.0,73.9,70.0,98,82,61,30.05,29.95,7,1,13,0.00
2013-9-10,89.8,80.2,71.6,77.0,73.1,70.0,96,80,57,30.11,30.02,9,2,14,0.26
2013-9-11,87.2,78.0,72.8,78.0,74.1,70.0,98,88,69,30.11,30.03,6,1,10,0.04
2013-9-12,85.6,78.2,71.9,78.0,73.8,71.0,98,87,71,30.05,29.93,3,0,8,0.00
2013-9-13,93.4,78.8,71.6,78.0,73.9,70.0,98,86,56,29.95,29.84,5,0,9,0.09
2013-9-14,95.5,79.9,71.8,81.0,75.4,71.0,98,87,52,30.00,29.86,5,0,10,0.24
2013-9-15,89.6,77.5,71.7,80.0,74.8,71.0,97,91,69,30.12,29.99,7,0,11,0.23
2013-9-16,88.9,77.5,70.5,80.0,73.3,70.0,98,87,70,30.10,30.02,11,1,15,0.01
2013-9-17,86.1,76.6,71.1,79.0,73.9,70.0,98,91,75,30.09,29.99,9,1,17,0.38
2013-9-18,87.2,77.2,72.2,78.0,74.3,71.0,98,91,72,30.05,29.98,8,1,14,0.53
2013-9-19,88.9,79.0,72.1,78.0,73.6,70.0,98,85,64,30.06,29.99,8,2,13,0.01
2013-9-20,87.5,78.1,69.2,74.0,69.9,68.0,97,77,57,30.05,29.94,7,1,14,0.00
2013-9-21,90.7,77.5,68.1,75.0,70.8,67.0,97,81,57,29.97,29.80,6,1,8,0.01
2013-9-22,91.2,79.2,70.4,79.0,73.2,68.0,97,83,59,29.88,29.78,7,2,14,0.00
2013-9-23,91.5,76.7,71.2,79.0,73.5,70.0,97,90,62,30.01,29.87,3,0,6,0.86
2013-9-24,84.7,76.8,72.9,79.0,74.7,71.0,97,93,81,29.99,29.88,5,1,10,0.74
2013-9-25,85.2,77.6,72.3,77.0,72.8,71.0,97,85,68,29.89,29.82,8,2,15,0.00
2013-9-26,91.5,80.2,73.2,81.0,74.8,72.0,96,84,60,29.88,29.79,10,2,15,0.01
2013-9-27,85.4,75.1,69.3,77.0,71.3,68.0,97,88,69,29.97,29.86,8,2,14,0.04
2013-9-28,87.2,76.3,70.0,77.0,71.8,69.0,98,86,64,30.02,29.93,7,1,14,0.26
2013-9-29,88.1,77.4,68.9,76.0,70.9,67.0,96,81,63,30.01,29.93,7,1,10,0.00
2013-9-30,89.9,76.2,66.4,75.0,70.2,65.0,98,83,58,30.05,29.95,4,1,9,0.00
2013-10-1,87.8,76.9,68.0,78.0,71.3,67.0,97,84,65,30.09,30.00,6,1,10,0.00
2013-10-2,88.0,77.2,68.8,75.0,70.7,67.0,97,82,61,30.08,30.02,7,1,11,0.00
2013-10-3,88.1,76.6,66.6,75.0,70.2,65.0,97,82,61,30.10,30.01,7,1,11,0.00
2013-10-4,89.0,76.3,68.1,77.0,70.5,67.0,98,83,61,30.10,30.03,6,1,11,0.00
2013-10-5,89.4,77.5,68.5,76.0,71.8,67.0,97,84,59,30.08,29.99,6,1,13,0.01
2013-10-6,90.7,77.9,68.5,78.0,72.0,67.0,97,83,59,30.00,29.91,5,0,10,0.00
2013-10-7,87.4,77.2,71.0,77.0,73.0,70.0,96,87,68,29.91,29.82,10,2,12,0.01
2013-10-8,90.4,78.8,73.3,77.0,73.2,71.0,96,84,57,29.95,29.83,10,2,14,0.00
2013-10-9,84.3,73.8,68.8,75.0,69.0,-99.9,96,87,70,30.02,29.92,11,-9,17,0.02
2013-10-10,86.2,74.4,64.3,74.0,67.7,62.0,95,81,61,30.03,29.96,7,2,13,0.00
2013-10-11,89.3,73.0,58.9,72.0,63.7,58.0,98,76,41,30.03,29.93,6,1,10,0.01
2013-10-12,89.4,74.5,62.9,72.0,65.8,62.0,97,77,45,30.03,29.95,7,1,10,0.00
2013-10-13,88.6,73.2,61.2,70.0,63.7,60.0,97,75,43,30.07,29.98,8,1,12,0.00
2013-10-14,67.3,65.1,63.9,67.0,63.6,62.0,97,95,92,30.02,29.97,3,0,5,0.00
2013-10-15,85.8,76.5,67.8,74.1,69.5,65.5,97,80,60,29.98,29.87,9,2,9,0.00
2013-10-16,89.7,75.0,65.6,75.4,68.5,64.1,97,82,44,29.96,29.88,8,2,8,0.00
2013-10-17,92.6,75.2,63.8,75.3,67.8,62.7,98,80,48,29.97,29.89,10,1,10,0.00
2013-10-18,91.3,76.1,65.2,75.9,69.7,63.8,98,82,57,29.99,29.90,10,1,10,0.00
2013-10-19,91.7,77.2,66.7,76.3,71.1,65.3,97,83,52,29.96,29.86,9,2,9,0.00
2013-10-20,83.5,76.7,71.8,76.0,73.2,70.0,96,89,78,29.95,29.86,9,1,9,0.00
2013-10-21,93.8,79.5,70.7,79.3,74.2,69.5,97,85,59,29.99,29.89,8,1,9,0.07
2013-10-22,92.2,79.4,73.3,77.7,74.1,71.2,95,85,58,29.95,29.80,15,2,15,0.03
2013-10-23,81.8,74.5,65.4,73.0,68.9,59.2,96,84,59,29.98,29.79,13,2,15,0.00
2013-10-24,76.1,67.4,61.0,64.0,58.3,52.8,88,73,63,30.13,29.98,13,4,14,0.00
2013-10-25,83.7,68.3,57.9,65.5,59.5,55.1,94,76,46,30.20,30.11,15,4,15,0.00
2013-10-26,83.3,66.5,55.7,65.7,57.5,54.3,97,76,41,30.18,30.07,10,2,10,0.00
2013-10-27,82.5,66.5,55.8,64.8,58.0,54.1,96,77,42,30.11,30.05,12,2,13,0.00
2013-10-28,86.2,69.7,57.6,68.3,61.6,55.5,96,77,51,30.16,30.07,10,2,11,0.00
2013-10-29,85.7,72.4,62.2,69.8,64.3,59.8,94,78,50,30.19,30.12,12,3,13,0.03
2013-10-30,86.3,73.5,63.7,73.5,66.5,62.3,97,80,54,30.21,30.10,12,2,13,0.00
2013-10-31,87.4,74.0,64.5,72.9,67.5,62.5,97,81,55,30.12,29.99,9,1,11,0.09
2013-11-1,89.6,76.8,68.5,75.5,69.6,65.7,97,80,53,30.01,29.85,16,2,18,0.00
2013-11-2,86.2,71.3,65.0,72.0,66.1,60.1,97,84,55,29.95,29.80,21,3,21,0.00
2013-11-3,81.2,67.6,57.2,62.5,55.9,48.5,90,69,34,30.08,29.92,16,5,19,0.00
2013-11-4,81.5,71.9,59.1,65.6,60.6,53.7,90,69,46,30.14,30.05,21,4,23,0.08
2013-11-5,83.6,75.9,70.4,71.3,68.0,64.5,88,77,62,30.13,30.05,17,5,17,0.04
2013-11-6,86.8,74.9,64.4,70.4,66.2,61.5,93,75,52,30.09,30.01,12,2,12,0.00
2013-11-7,82.8,71.9,63.6,73.1,67.2,61.3,97,86,65,30.03,29.93,12,2,12,0.00
2013-11-8,81.8,71.5,62.7,70.1,65.5,61.0,97,82,64,30.09,29.97,20,6,20,0.01
2013-11-9,83.0,73.6,63.9,68.4,65.3,61.6,93,76,61,30.16,30.06,14,4,14,0.00
2013-11-10,84.9,71.6,62.3,72.4,65.2,60.8,96,82,57,30.15,30.07,10,2,11,0.00
2013-11-11,83.8,72.0,64.9,71.6,66.5,62.9,96,84,60,30.14,30.06,12,2,12,0.00
2013-11-12,84.2,71.3,65.0,71.1,66.3,63.3,97,85,56,30.09,29.98,10,2,10,0.01
2013-11-13,71.0,66.1,63.8,64.8,56.6,48.8,91,72,57,30.27,30.03,25,8,27,0.01
2013-11-14,78.3,69.2,64.4,60.3,56.1,50.4,76,63,45,30.28,30.16,15,4,17,0.00
2013-11-15,81.6,70.7,63.6,67.5,63.2,56.7,92,78,55,30.18,30.06,8,1,11,0.01
2013-11-16,83.4,73.4,67.8,71.9,67.5,64.8,94,83,58,30.11,30.01,10,1,13,0.07
2013-11-17,86.6,76.0,67.7,72.7,69.9,65.8,96,82,60,30.08,29.99,12,1,12,0.00
2013-11-18,87.7,75.4,65.8,72.6,69.1,64.7,97,82,57,30.01,29.91,7,1,7,0.00
2013-11-19,81.4,72.7,66.9,70.9,67.3,64.3,96,84,66,29.95,29.86,12,3,12,0.00
2013-11-20,77.0,70.1,65.7,72.6,68.4,64.1,97,94,84,30.09,29.93,13,2,13,3.98
2013-11-21,77.9,72.6,70.1,71.9,69.8,68.5,97,91,80,30.17,30.07,12,2,15,2.49
2013-11-22,82.0,73.1,65.5,71.3,67.6,63.4,95,84,65,30.19,30.10,15,2,16,0.05
2013-11-23,83.8,69.9,62.0,71.3,64.6,60.8,98,84,61,30.10,29.99,9,1,9,0.00
2013-11-24,76.8,67.0,62.3,66.6,62.3,55.6,97,85,67,30.21,30.00,22,6,22,0.02
2013-11-25,75.4,69.6,66.8,65.7,60.0,54.7,90,72,57,30.23,30.07,16,5,17,0.04
2013-11-26,83.4,74.8,68.2,73.9,70.1,65.2,96,85,71,30.07,29.76,16,4,16,0.23
2013-11-27,73.0,66.0,47.3,71.5,60.5,43.1,96,83,61,30.16,29.71,21,5,21,0.07
2013-11-28,69.0,53.5,39.1,57.4,47.5,35.7,92,81,62,30.30,30.16,15,7,16,0.00
2013-11-29,73.1,61.6,52.0,62.0,56.4,49.8,94,84,63,30.32,30.24,15,6,17,0.00
2013-11-30,77.5,66.1,58.4,68.3,62.1,56.5,97,87,65,30.26,30.15,14,4,16,0.22
2013-12-1,69.2,64.9,61.7,68.0,63.9,60.3,97,96,94,30.15,29.96,11,2,11,0.24
2013-12-2,70.9,63.6,56.9,64.3,61.2,55.2,98,92,75,29.96,29.81,10,2,13,0.00
2013-12-3,78.5,66.0,58.0,64.3,60.7,56.9,97,84,59,30.00,29.88,8,1,8,0.00
2013-12-4,84.0,68.8,57.9,70.5,63.4,56.8,98,84,56,30.09,29.98,9,1,9,0.00
2013-12-5,82.8,69.8,58.7,72.1,65.5,57.6,98,87,68,30.18,30.08,9,1,11,0.00
2013-12-6,80.0,71.6,65.9,72.2,68.3,64.3,98,90,74,30.18,30.09,6,1,8,0.04
2013-12-7,82.8,70.3,60.0,73.0,66.4,58.9,98,88,66,30.23,30.15,8,1,8,0.01
2013-12-8,84.1,71.1,63.1,71.2,66.5,62.0,98,86,64,30.22,30.12,12,1,12,0.00
2013-12-9,84.3,71.6,62.9,73.0,66.2,61.8,98,84,62,30.19,30.09,9,1,11,0.00
2013-12-10,83.7,71.3,59.2,73.5,65.0,57.8,98,82,55,30.16,30.06,10,1,10,0.01
2013-12-11,82.7,71.6,61.4,72.4,66.7,59.1,96,85,68,30.22,30.14,9,3,9,0.00
2013-12-12,70.1,63.2,51.9,65.5,57.4,47.9,96,82,55,30.27,30.16,18,6,23,0.00
2013-12-13,76.1,61.9,48.5,62.1,55.1,46.9,97,80,55,30.25,30.12,12,2,13,0.00
2013-12-14,80.0,72.9,66.8,73.1,68.0,62.3,92,85,76,30.12,29.96,10,2,13,0.00
2013-12-15,77.0,69.3,62.8,73.5,65.9,58.3,96,89,80,30.09,29.90,16,4,16,0.02
2013-12-16,70.0,58.3,48.8,58.7,52.8,46.0,91,82,65,30.20,30.08,12,5,12,0.00
2013-12-17,74.9,58.6,47.9,63.1,53.3,45.6,97,84,62,30.22,30.12,14,3,14,0.00
2013-12-18,71.3,56.3,46.3,54.4,48.2,44.0,95,77,39,30.26,30.17,13,4,15,0.01
2013-12-19,76.6,58.3,44.4,63.0,52.4,43.1,97,83,55,30.27,30.18,10,1,10,0.01
2013-12-20,81.3,64.8,50.5,67.3,58.2,49.2,98,81,55,30.21,30.11,10,1,11,0.00
2013-12-21,81.2,70.5,60.9,73.6,67.3,59.5,98,90,76,30.15,30.05,10,1,12,0.00
2013-12-22,84.8,73.2,63.7,73.8,68.6,62.9,98,86,60,30.15,30.07,12,2,13,0.01
2013-12-23,84.5,73.7,65.0,74.5,68.8,63.9,98,86,62,30.17,30.08,13,2,13,0.01
2013-12-24,69.3,62.5,51.6,68.3,58.5,45.3,97,87,53,30.22,30.09,18,4,21,0.10
2013-12-25,74.8,61.4,50.3,61.3,55.1,48.1,93,81,60,30.22,30.14,14,2,15,0.00
2013-12-26,79.1,65.4,55.6,68.3,61.0,53.9,96,86,67,30.20,30.08,12,3,12,0.00
2013-12-27,70.8,68.3,63.4,68.4,66.2,61.6,96,93,92,30.21,30.14,10,1,11,0.00
2013-12-28,70.7,70.7,70.7,68.3,68.3,68.3,92,92,92,30.21,30.21,1,0,1,0.00
2013-12-29,78.4,72.6,69.9,74.4,70.3,67.8,95,92,89,30.21,29.87,12,2,12,0.21
2013-12-30,69.8,63.6,57.3,68.0,61.1,55.3,96,92,86,30.18,29.98,12,3,12,0.00
2013-12-31,69.4,62.3,59.6,59.6,57.1,56.1,88,83,70,30.26,30.17,12,2,12,0.00
2014-1-1,70.1,65.7,62.6,68.7,64.0,58.7,97,94,85,30.23,30.08,9,2,9,0.08
2014-1-2,82.7,71.8,66.1,72.6,67.6,65.3,98,88,66,30.08,29.81,21,4,21,0.24